Bar Harbor, ME

5:37 AM EDT on October 22, 2017 (GMT -0400)
Hancock County-Bar Harbor

Weather History for KBHB - February, 2013

Change the Weather History Date:

Monday, February 11, 2013

  Actual Average Record
Temperature  
Mean Temperature 23 °F -  
Max Temperature 41 °F 32 °F 52 °F (1966)
Min Temperature 5 °F 15 °F -8 °F (1979)
Degree Days  
Heating Degree Days 42    
Moisture  
Dew Point 22 °F    
Average Humidity 90    
Maximum Humidity 100    
Minimum Humidity 68    
Precipitation  
Precipitation 0.21 in - - ()
Sea Level Pressure  
Sea Level Pressure 30.02 in    
Wind  
Wind Speed 3 mph (South)    
Max Wind Speed 14 mph    
Max Gust Speed 18 mph    
Visibility 7 miles    
Events      
Averages and records for this station are not official NWS values.
T = Trace of Precipitation, MM = Missing Value Source: NWS Daily Summary

Daily Weather History Graph

Daily Weather History Graph

Search for Another Location

Airport or City:

Trip Planner

Search our weather history database for the weather conditions in past years. The results will help you decide how hot, cold, wet, or windy it might be!

Date:

Astronomy

Feb. 11, 2013 Rise Set
Actual Time 6:38 AM EST 4:57 PM EST
Civil Twilight 6:08 AM EST 5:27 PM EST
Nautical Twilight 5:34 AM EST 6:01 PM EST
Astronomical Twilight 5:00 AM EST 6:35 PM EST
Moon 6:55 AM EST (2/11) 6:56 PM EST (2/11)
Length of Visible Light 11h 18m
Length of Day
10h 18m
Waxing Crescent, 3% of the Moon is Illuminated
Feb 11
Waxing Crescent
Feb 17
First Quarter
Feb 25
Full
Mar 4
Last Quarter
Mar 11
New

Hourly Weather History & Observations

Time (EST) Temp. Windchill Dew Point Humidity Pressure Visibility Wind Dir Wind Speed Gust Speed Precip Events Conditions
12:15 AM 15.8 °F - 6.8 °F 68% 30.33 in 10.0 mi Calm Calm - N/A   Clear
12:35 AM 14.0 °F - 6.8 °F 73% 30.33 in 10.0 mi Calm Calm - N/A   Clear
12:55 AM 12.2 °F - 6.8 °F 79% 30.33 in 10.0 mi Calm Calm - N/A   Clear
1:15 AM 10.4 °F - 6.8 °F 85% 30.34 in 10.0 mi Calm Calm - N/A   Clear
1:35 AM 12.2 °F - 6.8 °F 79% 30.34 in 10.0 mi Calm Calm - N/A   Clear
1:55 AM 10.4 °F - 6.8 °F 85% 30.34 in 10.0 mi Calm Calm - N/A   Clear
2:15 AM 8.6 °F - 6.8 °F 92% 30.32 in 10.0 mi Calm Calm - N/A   Clear
2:35 AM 6.8 °F - 6.8 °F 100% 30.31 in 10.0 mi Calm Calm - N/A   Clear
2:55 AM 6.8 °F - 6.8 °F 100% 30.30 in 10.0 mi Calm Calm - N/A   Clear
3:15 AM 6.8 °F - 5.0 °F 92% 30.30 in 10.0 mi Calm Calm - N/A   Clear
3:35 AM 6.8 °F - 5.0 °F 92% 30.29 in 10.0 mi Calm Calm - N/A   Clear
3:55 AM 8.6 °F - 6.8 °F 92% 30.29 in 10.0 mi Calm Calm - N/A   Clear
4:15 AM 6.8 °F -0.1 °F 5.0 °F 92% 30.28 in 10.0 mi North 3.5 mph - N/A   Clear
4:35 AM 6.8 °F - 5.0 °F 92% 30.28 in 10.0 mi Calm Calm - N/A   Clear
4:55 AM 5.0 °F -2.1 °F 3.2 °F 92% 30.27 in 10.0 mi NNW 3.5 mph - N/A   Clear
5:15 AM 6.8 °F - 6.8 °F 100% 30.27 in 10.0 mi Calm Calm - N/A   Clear
5:35 AM 6.8 °F -0.1 °F 5.0 °F 92% 30.26 in 10.0 mi NNW 3.5 mph - N/A   Clear
6:15 AM 6.8 °F -0.1 °F 5.0 °F 92% 30.25 in 10.0 mi NNW 3.5 mph - N/A   Clear
6:35 AM 8.6 °F 0.1 °F 5.0 °F 85% 30.25 in 10.0 mi NNW 4.6 mph - N/A   Clear
6:55 AM 8.6 °F 2.0 °F 5.0 °F 85% 30.25 in 10.0 mi NNW 3.5 mph - N/A   Clear
7:35 AM 8.6 °F 2.0 °F 6.8 °F 92% 30.25 in 10.0 mi North 3.5 mph - N/A   Clear
7:55 AM 10.4 °F 4.0 °F 6.8 °F 85% 30.24 in 10.0 mi North 3.5 mph - N/A   Clear
8:15 AM 10.4 °F 2.2 °F 6.8 °F 85% 30.23 in 10.0 mi North 4.6 mph - N/A   Clear
8:35 AM 12.2 °F - 8.6 °F 85% 30.23 in 10.0 mi Calm Calm - N/A   Clear
8:55 AM 12.2 °F 6.1 °F 6.8 °F 79% 30.20 in 10.0 mi North 3.5 mph - N/A   Clear
9:15 AM 14.0 °F 8.2 °F 8.6 °F 79% 30.19 in 10.0 mi North 3.5 mph - N/A   Clear
9:35 AM 15.8 °F - 10.4 °F 79% 30.18 in 10.0 mi Calm Calm - N/A   Clear
9:55 AM 17.6 °F - 12.2 °F 79% 30.18 in 10.0 mi Calm Calm - N/A   Partly Cloudy
10:15 AM 21.2 °F - 15.8 °F 80% 30.16 in 10.0 mi Calm Calm - N/A   Clear
10:35 AM 23.0 °F - 17.6 °F 80% 30.14 in 8.0 mi Calm Calm - N/A   Clear
10:55 AM 24.8 °F - 17.6 °F 74% 30.12 in 10.0 mi Calm Calm - N/A   Mostly Cloudy
11:15 AM 26.6 °F - 19.4 °F 74% 30.11 in 10.0 mi Calm Calm - N/A   Overcast
11:35 AM 28.4 °F - 21.2 °F 74% 30.10 in 9.0 mi Calm Calm - N/A   Overcast
11:55 AM 30.2 °F 23.4 °F 26.6 °F 86% 30.08 in 10.0 mi South 6.9 mph - N/A   Overcast
12:15 PM 33.8 °F 27.7 °F 26.6 °F 75% 30.06 in 10.0 mi South 6.9 mph - N/A   Overcast
12:35 PM 37.4 °F 29.8 °F 28.4 °F 70% 30.04 in 10.0 mi South 11.5 mph 17.3 mph N/A   Overcast
12:55 PM 35.6 °F 27.1 °F 30.2 °F 81% 30.02 in 10.0 mi SSE 12.7 mph - N/A   Overcast
1:15 PM 37.4 °F 28.9 °F 28.4 °F 70% 30.01 in 10.0 mi South 13.8 mph - N/A   Overcast
1:35 PM 35.6 °F 26.6 °F 30.2 °F 81% 30.00 in 7.0 mi South 13.8 mph - N/A   Overcast
1:55 PM 33.8 °F 27.7 °F 33.8 °F 100% 29.98 in 3.0 mi SSE 6.9 mph - N/A   Overcast
2:15 PM 33.8 °F 29.6 °F 33.8 °F 100% 29.97 in 1.2 mi SE 4.6 mph - 0.01 in   Overcast
2:35 PM 33.8 °F 27.7 °F 33.8 °F 100% 29.96 in 3.0 mi SE 6.9 mph - 0.03 in   Overcast
2:56 PM 33.8 °F 27.7 °F 32.0 °F 93% 29.94 in 2.0 mi SSE 6.9 mph - N/A   Overcast
3:15 PM 33.8 °F 27.7 °F 33.8 °F 100% 29.92 in 7.0 mi SSE 6.9 mph - N/A   Overcast
3:35 PM 33.8 °F 25.8 °F 33.8 °F 100% 29.90 in 8.0 mi SSE 10.4 mph - N/A   Overcast
3:55 PM 35.6 °F 26.6 °F 35.6 °F 100% 29.89 in 7.0 mi SSE 13.8 mph - N/A   Overcast
4:15 PM 35.6 °F 26.6 °F 35.6 °F 100% 29.86 in 5.0 mi SSE 13.8 mph 18.4 mph N/A   Overcast
4:35 PM 35.6 °F 27.5 °F 35.6 °F 100% 29.85 in 8.0 mi SSE 11.5 mph 18.4 mph N/A   Overcast
4:55 PM 35.6 °F 31.7 °F 35.6 °F 100% 29.83 in 3.0 mi ESE 4.6 mph - 0.08 in   Overcast
5:55 PM 37.4 °F 30.3 °F 35.6 °F 93% 29.76 in 10.0 mi SSE 10.4 mph - 0.04 in   Overcast
6:15 PM 39.2 °F 31.6 °F 39.2 °F 100% 29.74 in 10.0 mi SSE 12.7 mph 18.4 mph N/A   Overcast
6:36 PM 39.2 °F 32.5 °F 39.2 °F 100% 29.72 in 10.0 mi SSE 10.4 mph - N/A   Overcast
6:55 PM 39.2 °F 34.2 °F 39.2 °F 100% 29.71 in 6.0 mi SSE 6.9 mph - 0.01 in   Overcast
7:15 PM 39.2 °F 32.0 °F 39.2 °F 100% 29.69 in 4.0 mi South 11.5 mph - 0.02 in   Overcast
7:35 PM 39.2 °F 34.2 °F 39.2 °F 100% 29.67 in 2.5 mi South 6.9 mph - 0.03 in   Overcast
7:55 PM 39.2 °F 34.2 °F 39.2 °F 100% 29.66 in 2.0 mi South 6.9 mph - 0.03 in   Overcast
8:15 PM 39.2 °F 34.2 °F 39.2 °F 100% 29.65 in 1.2 mi South 6.9 mph - 0.01 in   Overcast
8:35 PM 39.2 °F 34.2 °F 39.2 °F 100% 29.63 in 1.0 mi South 6.9 mph - 0.02 in   Overcast
8:55 PM 41.0 °F 35.8 °F 41.0 °F 100% 29.62 in 1.0 mi SSW 8.1 mph - 0.02 in   Overcast
9:15 PM 41.0 °F 36.4 °F 41.0 °F 100% 29.61 in 0.5 mi SSW 6.9 mph - N/A   Overcast
9:35 PM 39.2 °F 34.2 °F 39.2 °F 100% 29.59 in 0.2 mi SSW 6.9 mph - N/A   Overcast
9:55 PM 39.2 °F 35.9 °F 39.2 °F 100% 29.58 in 0.2 mi SSW 4.6 mph - N/A   Overcast
10:15 PM 39.2 °F 35.9 °F 39.2 °F 100% 29.57 in 0.2 mi SSW 4.6 mph - N/A   Overcast
10:35 PM 39.2 °F - 37.4 °F 93% 29.57 in 0.2 mi Calm Calm - N/A   Overcast
10:55 PM 37.4 °F - 37.4 °F 100% 29.57 in 0.2 mi Calm Calm - N/A   Overcast
11:35 PM 39.2 °F - 39.2 °F 100% 29.55 in 10.0 mi Calm Calm - N/A   Overcast
11:55 PM 39.2 °F 37.0 °F 39.2 °F 100% 29.55 in 1.2 mi SW 3.5 mph - N/A   Overcast